Location: Gradaro
(45.0833°N, 10.8833°E)
Time: 14:05:58
(UTC+00:00)

Cosmos 1328 Rocket - Pass Details

Date: 29 November 2020
Orbit: 601 x 627 km, 82.5° (Epoch: 22 January)

Event Time Altitude Azimuth Distance (km) Brightness Sun altitude
Exits shadow 04:35:44 49° 291° (WNW) 806 3.7 -20.1°
Maximum altitude 04:36:13 52° 266° (W) 778 3.6 -20.0°
Drops below altitude 10° 04:40:31 10° 190° (S) 1,994 6.2 -19.3°
Sets 04:42:46 0° 186° (S) 2,897 7.1 -18.9°
